AirNav   TITAN Aviation Fuels
 
 1532 users online  

KANP Lee Airport
Annapolis, Maryland, USA

GOING TO ANNAPOLIS?


FAA INFORMATION EFFECTIVE 01 DECEMBER 2022

Location

FAA Identifier: ANP
Lat/Long: 38-56-34.3600N 076-34-06.2370W
38-56.572667N 076-34.103950W
38.9428778,-76.5683992
(estimated)
Elevation: 34.2 ft. / 10 m (estimated)
Variation: 10W (1985)
From city: 5 miles SW of ANNAPOLIS, MD
Time zone: UTC -5 (UTC -4 during Daylight Saving Time)
Zip code: 21037

Airport Operations

Airport use: Open to the public
Activation date: 06/1942
Control tower: no
ARTCC: WASHINGTON CENTER
FSS: LEESBURG FLIGHT SERVICE STATION
NOTAMs facility: DCA (NOTAM-D service available)
Attendance: 0800-1600
CONTACT AIRPORT MANAGER 410-956-1280 FOR APPROVAL OF ANY FLIGHT OPERATIONS BETWEEN 2200 - 0700 LOCAL. ARPT UNATNDD NEW YEARS; MEMORIAL DAY; JULY 4; LABOR DAY; THANKSGIVING & CHRISTMAS.
Wind indicator: lighted
Segmented circle: no
Lights: ACTVT LIRL RWY 12/30 - CTAF. LIGHTING INOP BTW 2200-0700.
Beacon: white-green (lighted land airport)
DUSK-2200.
Landing fee: yes

Airport Communications

CTAF: 122.9
POTOMAC APPROACH: 119.7
POTOMAC DEPARTURE: 119.7
WX AWOS-3 at W29 (11 nm E): 120.575 (410-643-8795)
WX AWOS-3 at FME (12 nm NW): 123.925
WX ASOS at BWI (15 nm N): PHONE 410-691-1278
WX AWOS-3 at CGS (17 nm W): 121.225 (301-864-5497)

Nearby radio navigation aids

VOR radial/distance  VOR name  Freq  Var
BALr173/14.4BALTIMORE VORTAC115.1011W
ADWr070/16.1ANDREWS VORTAC113.1010W
OTTr040/16.4NOTTINGHAM VORTAC113.7010W
DCAr086/22.4WASHINGTON VOR/DME111.0009W
EMIr158/38.2WESTMINSTER VORTAC117.9008W

 
NDB name  Hdg/Dist  Freq  Var  ID
ELLICOTT166/22.837111WFND ..-. -. -..
OXONN075/23.933211WDCA -.. -.-. .-
GEORGETOWN097/26.032309WGTN --. - -.
DAVEE065/30.422309WDAA -.. .- .-

Airport Services

Fuel available: 100LL
Parking: tiedowns
Airframe service: MAJOR
Powerplant service: MAJOR

Runway Information

Runway 12/30

Dimensions: 2500 x 48 ft. / 762 x 15 m
Surface: asphalt, in fair condition
MINOR PAVEMENT CRACKS FULL LENGTH.
Runway edge lights: low intensity
RUNWAY 12  RUNWAY 30
Latitude: 38-56.634583N38-56.510733N
Longitude: 076-34.355417W076-33.852483W
Elevation: 30.6 ft.31.3 ft.
Traffic pattern: leftleft
Runway heading: 118 magnetic, 108 true298 magnetic, 288 true
Displaced threshold: 476 ft.321 ft.
Markings: basic, in fair conditionnonprecision, in fair condition
Visual slope indicator: 2-light PAPI on left (5.75 degrees glide path)
VGSI APCHS TO BE FLOWN. RWY 12 VGSI RELIABLE ON CNTLRN ONLY.
2-light PAPI on right (4.25 degrees glide path)
Touchdown point: yes, no lightsyes, no lights
Obstructions: 70 ft. trees, 268 ft. from runway, 131 ft. right of centerline, 1:1 slope to clear
6 FT FENCE ACROSS APCH END MARKED. 10 FT ROAD 156 FT FM THLD.
50 ft. trees, 822 ft. from runway, 94 ft. right of centerline, 12:1 slope to clear
+6 FT FENCE ACROSS APCH END MKD. +15 FT PUBLIC ROAD AT THLD, R OF CNTRLN.

Airport Ownership and Management from official FAA records

Ownership: Privately-owned
Owner: LEE AIRPORT AUTHORITY LLC
P.O. BOX 2342
ANNAPOLIS, MD 21401
Phone 410-956-1280
CORPORATION ESTABLISHED BY MARY C. LEE
Manager: LEE RUNWAY MANAGER LLC
P.O. BOX 2342
ANNAPOLIS, MD 21401
Phone 410-956-1280

Airport Operational Statistics

Aircraft based on the field: 66
Single engine airplanes: 65
Multi engine airplanes: 1
    
Aircraft operations: avg 32/day *
84% local general aviation
13% transient general aviation
3% military
* for 12-month period ending 01 April 2022

Additional Remarks

NO LANDING ON GRASS. LDG FEE AFTER ONE HOUR OR OVERNIGHT.
TOUCH & GO OPNS PROHIBITED.
NO TAKE-OFFS AFTER 2200 DAILY.
NO GRASS CROSSOVER FM RWY 12/30 TO TWY ROLLOUT TO THE END OF RWY.
HVY BIRD AND WILDLIFE ACT ON AND INVOF ARPT.
ARPT CLSD 2200-0700 LCL, CTC ARPT MANAGER FOR DETAILS.
FOR CD CTC POTOMAC APCH AT 866-429-5882.

Instrument Procedures

NOTE: All procedures below are presented as PDF files. If you need a reader for these files, you should download the free Adobe Reader.

NOT FOR NAVIGATION. Please procure official charts for flight.
FAA instrument procedures published for use from 01 December 2022 at 0901Z to 29 December 2022 at 0900z.

 
IAPs - Instrument Approach Procedures
RNAV (GPS)-A   download (221KB)
NOTE: Special Take-Off Minimums/Departure Procedures apply   download (140KB)

Other nearby airports with instrument procedures:

W00 - Freeway Airport (10 nm W)
W29 - Bay Bridge Airport (11 nm E)
KFME - Tipton Airport (12 nm NW)
KBWI - Baltimore/Washington International Thurgood Marshall Airport (15 nm N)
KADW - Joint Base Andrews (16 nm SW)
KCGS - College Park Airport (17 nm W)
 
Loc | Ops | Rwys | IFR | FBO | Links
Com | Nav | Svcs | Stats | Notes
Area around KANP (Lee Airport)
 
Road maps at: MapQuest Bing Google
 
Aerial photo
WARNING: Photo may not be current or correct
Aerial photo of KANP (Lee Airport)
Photo taken 19-Oct-2016
looking northeast.

Do you have a better or more recent aerial photo of Lee Airport that you would like to share? If so, please send us your photo.

 
Sectional chart

 
Airport distance calculator
Flying to Lee Airport? Find the distance to fly.

From to KANP

Sunrise and sunset
Times for 09-Dec-2022
 Local
(UTC-5)
 Zulu
(UTC)
Morning civil twilight06:4411:44
Sunrise07:1412:14
Sunset16:4321:43
Evening civil twilight17:1322:13

Current date and time
Zulu (UTC)  09-Dec-2022 20:43:05
Local (UTC-5)  09-Dec-2022 15:43:05
 
METAR
KNAK 
5nm NE 
091954Z AUTO 36004KT 10SM CLR 08/M02 A3026 RMK AO2 SLP248 T00831017
KW29 
11nm E 
092015Z AUTO 36005KT 10SM CLR 08/M02 A3026 RMK AO2 T00771023
KFME 
13nm NW 
092019Z AUTO 08003KT 10SM CLR 08/M07 A3027 RMK AO1
KBWI 
14nm N 
091954Z 36005KT 10SM FEW250 10/M04 A3024 RMK AO2 SLP242 T01001044
KADW 
16nm SW 
091955Z AUTO 04007KT 10SM CLR 08/M02 A3022 RMK AO2 SLP242 T00811023 $
KCGS 
17nm W 
092015Z AUTO 35003KT 10SM CLR 09/M04 A3025 RMK AO2 T00901035
TAF
KBWI 
14nm N 
091722Z 0918/1024 02005KT P6SM FEW250 FM101500 05006KT P6SM SKC FM102100 09005KT P6SM SCT250
KADW 
16nm SW 
091700Z 0917/1023 05006KT 9999 FEW250 QNH3022INS BECMG 1005/1006 VRB04KT 9999 BKN250 QNH3027INS TX10/0919Z TN01/1011Z
NOTAMs
Click for the latest NOTAMs
NOTAMs are issued by the DoD/FAA and will open in a separate window not controlled by AirNav.

 

 
 

FBO, Fuel Providers, and Aircraft Ground Support

  
 Business Name 
 
 Contact 
 
 Services / Description 
 
Fuel Prices
 
Comments
  
Lee Runway Manager, LLC 410-956-1280
410-956-4129
[email]
Airport management, Aviation fuel, Aircraft parking (ramp or tiedown), Hangar leasing / sales, Pilot school (FAR Part 141), Flight training, ...

More info about Lee Runway Manager, LLC
Phillips 66
100LL
FS $7.00 
 Updated 30-Nov-2022
 
   3 read write
FS=Full service
Update Fuel Prices
 

Would you like to see your business listed on this page?

 If your business provides an interesting product or service to pilots, flight crews, aircraft, or users of the Lee Airport, you should consider listing it here.  To start the listing process, click on the button below
 
Add a business
 

Other Pages about Lee Airport

www.leeairport.org
www.presgroup.com/...
 
Update a link
 
Copyright © AirNav, LLC. All rights reserved. Privacy Policy  Contact